{"data":{"norad_id":40892,"intl_designator":"2015-046A","name":"TJS-1","alt_names":[],"object_type":"PAYLOAD","status":"ACTIVE","operator":null,"country":"PRC","launch_date":"2015-09-12","launch_site_code":"XICLF","launch_vehicle":null,"mission":null,"orbit_class":"UNKNOWN","rcs_meters":65.167,"size_class":null,"mass_kg":null,"dimensions":null,"purposes":["comms"],"wikipedia_slug":null,"has_3d_model":false,"image_url":null,"decayed_at":null,"tle_current":{"epoch":"2026-09-19T19:40:12.552672Z","epoch_age_seconds":80672,"freshness":"FRESH","line1":"1 40892U 15046A   26262.81958973 -.00000160  00000+0  00000+0 0  9993","line2":"2 40892   0.5604  83.9428 0003364  71.6571 293.2140  1.00273087 40527","mean_motion":1.00273087,"eccentricity":0.0003364,"inclination_deg":0.5604,"raan_deg":83.9428,"arg_perigee_deg":71.6571,"mean_anomaly_deg":293.214,"bstar":0,"rev_number":4052,"period_min":1436.0782569704,"perigee_km":35772.045874228,"apogee_km":35800.414060324,"semimajor_km":42164.366967276,"source":"CELESTRAK","updated_at":"2026-09-20T09:00:35.219011Z"}}}